EW7659 Weather Reports


Display with metric or nautical units.
time (UTC)temp
F
wind
direction
speed
MPH
gust
MPH
rain 1hr
in
rain 24hr
in
rain mn
in
humidity
%
barometer
mb
20210621111203 69 41 5.0 11.0 0.00 0.00 0.00 66 1007.0
20210621110701 70 11 5.0 12.0 0.00 0.00 0.00 64 1007.7
20210621110201 71 328 5.0 13.0 0.00 0.00 0.00 62 1007.3
20210621105701 71 317 5.0 13.0 0.00 0.00 0.00 60 1007.0
20210621105201 72 36 4.0 12.0 0.00 0.00 0.00 58 1006.6
20210621104701 73 0 3.0 12.0 0.00 0.00 0.00 57 1006.1
20210621104202 73 329 3.0 7.0 0.00 0.00 0.00 57 1005.8
20210621103701 73 319 3.0 7.0 0.00 0.00 0.00 57 1005.6
20210621103202 73 61 3.0 7.0 0.00 0.00 0.00 56 1005.5
20210621102702 73 29 4.0 10.0 0.00 0.00 0.00 56 1005.4
20210621102201 74 40 5.0 14.0 0.00 0.00 0.00 56 1005.4
20210621101703 74 323 5.0 14.0 0.00 0.00 0.00 56 1005.5
20210621101201 74 355 5.0 12.0 0.00 0.00 0.00 57 1005.3
20210621100701 74 48 5.0 12.0 0.00 0.00 0.00 58 1005.2
20210621100202 75 43 5.0 12.0 0.00 0.00 0.00 58 1005.2
20210621095702 75 15 5.0 12.0 0.00 0.00 0.00 58 1005.2
20210621095202 76 119 5.0 15.0 0.00 0.00 0.00 58 1005.4
20210621094701 76 67 5.0 15.0 0.00 0.00 0.00 57 1005.3
20210621094200 76 355 4.0 12.0 0.00 0.00 0.00 57 1005.2
20210621093653 77 342 4.0 12.0 0.00 0.00 0.00 58 1005.2
20210621093148 77 51 5.0 15.0 0.00 0.00 0.00 58 1005.4
20210621092641 77 0 5.0 15.0 0.00 0.00 0.00 58 1005.4
20210621092141 78 349 5.0 11.0 0.00 0.00 0.00 58 1005.4
20210621091639 78 36 4.0 11.0 0.00 0.00 0.00 58 1005.4
20210621091139 78 49 3.0 10.0 0.00 0.00 0.00 59 1004.7
20210621090639 78 22 3.0 8.0 0.00 0.00 0.00 59 1004.1
20210621090137 78 31 3.0 14.0 0.00 0.00 0.00 59 1004.2
20210621085637 78 323 4.0 14.0 0.00 0.00 0.00 60 1004.2
20210621085137 78 355 3.0 11.0 0.00 0.00 0.00 60 1004.2
20210621084636 78 9 3.0 12.0 0.00 0.00 0.00 61 1004.0
20210621084135 78 347 4.0 12.0 0.00 0.00 0.00 60 1004.1
20210621083635 78 0 4.0 12.0 0.00 0.00 0.00 61 1004.2
20210621083134 78 37 4.0 12.0 0.00 0.00 0.00 61 1004.1
20210621082633 78 332 3.0 11.0 0.00 0.00 0.00 61 1004.1
20210621082133 79 17 3.0 9.0 0.00 0.00 0.00 63 1003.7
20210621081631 79 0 3.0 11.0 0.00 0.00 0.00 65 1003.7
20210621081131 79 350 4.0 11.0 0.00 0.00 0.00 66 1003.6
20210621080631 79 10 4.0 13.0 0.00 0.00 0.00 70 1003.4
20210621080129 79 35 4.0 13.0 0.00 0.00 0.00 72 1003.2
20210621075629 78 338 2.0 12.0 0.00 0.00 0.00 75 1003.2
20210621075129 78 17 0.0 4.0 0.00 0.00 0.00 77 1002.9
20210621074630 78 15 0.0 0.0 0.00 0.00 0.00 76 1002.6
20210621074130 78 15 0.0 1.0 0.00 0.00 0.00 76 1002.6
20210621073629 78 15 0.0 1.0 0.00 0.00 0.00 76 1002.5
20210621073129 78 15 0.0 1.0 0.00 0.00 0.00 75 1002.3
20210621072629 79 15 0.0 1.0 0.00 0.00 0.00 75 1002.3
20210621072129 79 15 0.0 0.0 0.00 0.00 0.00 74 1002.2
20210621071629 79 15 0.0 2.0 0.00 0.00 0.00 74 1002.0
20210621071129 79 15 0.0 2.0 0.00 0.00 0.00 74 1002.0
20210621070630 79 15 0.0 1.0 0.00 0.00 0.00 73 1002.0
20210621070129 80 15 0.0 3.0 0.00 0.00 0.00 73 1001.9
20210621065628 80 15 1.0 3.0 0.00 0.00 0.00 73 1001.9
20210621065129 80 13 1.0 3.0 0.00 0.00 0.00 73 1001.8
20210621064630 80 346 1.0 3.0 0.00 0.00 0.00 73 1001.7
20210621064128 80 355 1.0 3.0 0.00 0.00 0.00 72 1001.7
20210621063630 80 9 1.0 3.0 0.00 0.00 0.00 72 1001.4
20210621063129 80 273 0.0 3.0 0.00 0.00 0.00 72 1001.1
20210621062629 80 247 0.0 1.0 0.00 0.00 0.00 71 1000.7
20210621062129 81 247 0.0 1.0 0.00 0.00 0.00 70 1000.7
20210621061631 81 247 0.0 1.0 0.00 0.00 0.00 69 1000.6
20210621061128 81 247 0.0 2.0 0.00 0.00 0.00 69 1000.6
20210621060629 81 247 0.0 2.0 0.00 0.00 0.00 68 1000.7
20210621060129 82 247 0.0 2.0 0.00 0.00 0.00 68 1000.8
20210621055630 82 247 0.0 2.0 0.00 0.00 0.00 68 1000.9
20210621055129 82 221 1.0 5.0 0.00 0.00 0.00 67 1001.0
20210621054631 82 200 1.0 5.0 0.00 0.00 0.00 67 1000.9
20210621054129 82 200 1.0 6.0 0.00 0.00 0.00 67 1000.9
20210621053629 82 202 2.0 6.0 0.00 0.00 0.00 66 1000.8
20210621053129 82 166 2.0 6.0 0.00 0.00 0.00 66 1000.8
20210621052630 83 173 3.0 12.0 0.00 0.00 0.00 66 1000.7
20210621052130 83 182 3.0 12.0 0.00 0.00 0.00 66 1000.6
20210621051628 83 175 3.0 7.0 0.00 0.00 0.00 65 1000.6
20210621051129 83 200 3.0 6.0 0.00 0.00 0.00 65 1000.6
20210621050629 83 171 4.0 8.0 0.00 0.00 0.00 65 1000.6
20210621050129 83 186 4.0 9.0 0.00 0.00 0.00 65 1000.4
20210621045630 83 161 4.0 14.0 0.00 0.00 0.00 65 1000.4
20210621045129 83 205 4.0 14.0 0.00 0.00 0.00 65 1000.4
20210621044629 83 217 4.0 10.0 0.00 0.00 0.00 65 1000.3
20210621044128 83 213 3.0 8.0 0.00 0.00 0.00 65 1000.5
20210621043628 83 137 3.0 8.0 0.00 0.00 0.00 65 1000.5
20210621043128 83 217 4.0 9.0 0.00 0.00 0.00 65 1000.5
20210621042628 83 163 4.0 10.0 0.00 0.00 0.00 65 1000.7
20210621042129 84 200 3.0 10.0 0.00 0.00 0.00 65 1000.6
20210621041630 84 175 3.0 6.0 0.00 0.00 0.00 65 1000.6
20210621041129 84 178 3.0 7.0 0.00 0.00 0.00 65 1000.7
20210621040629 84 176 3.0 7.0 0.00 0.00 0.00 65 1000.7
20210621040129 84 181 3.0 7.0 0.00 0.00 0.00 64 1000.8
20210621035629 84 159 3.0 7.0 0.00 0.00 0.00 65 1000.7
20210621035129 84 163 4.0 7.0 0.00 0.00 0.00 64 1000.6
20210621034628 84 201 3.0 8.0 0.00 0.00 0.00 64 1000.5
20210621034129 85 171 3.0 8.0 0.00 0.00 0.00 63 1000.4
20210621033630 85 190 3.0 6.0 0.00 0.00 0.00 63 1000.5
20210621033129 85 196 2.0 6.0 0.00 0.00 0.00 63 1000.4
20210621032628 85 180 2.0 5.0 0.00 0.00 0.00 62 1000.4
20210621032128 85 207 2.0 9.0 0.00 0.00 0.00 62 1000.2
20210621031628 85 198 3.0 9.0 0.00 0.00 0.00 61 1000.1
20210621031129 85 207 4.0 10.0 0.00 0.00 0.00 61 999.7
20210621030629 86 167 4.0 10.0 0.00 0.00 0.00 60 999.5
20210621030129 86 164 5.0 12.0 0.00 0.00 0.00 60 999.5
20210621025629 86 164 5.0 12.0 0.00 0.00 0.00 59 999.3
20210621025130 86 229 4.0 12.0 0.00 0.00 0.00 59 999.1
20210621024628 86 233 4.0 10.0 0.00 0.00 0.00 59 999.0
20210621024129 86 126 4.0 10.0 0.00 0.00 0.00 60 998.8
20210621023629 86 194 4.0 9.0 0.00 0.00 0.00 60 998.7
20210621023130 86 190 5.0 14.0 0.00 0.00 0.00 60 998.7
20210621022629 86 172 5.0 14.0 0.00 0.00 0.00 60 998.7
20210621022130 86 194 6.0 14.0 0.00 0.00 0.00 60 998.7
20210621021629 87 211 5.0 12.0 0.00 0.00 0.00 60 998.7
20210621021130 87 182 4.0 14.0 0.00 0.00 0.00 59 998.8
20210621020628 87 179 5.0 14.0 0.00 0.00 0.00 59 998.8
20210621020129 87 173 5.0 11.0 0.00 0.00 0.00 59 998.6
20210621015628 87 208 5.0 11.0 0.00 0.00 0.00 59 998.6
20210621015129 87 229 6.0 10.0 0.00 0.00 0.00 59 998.4
20210621014629 87 168 5.0 10.0 0.00 0.00 0.00 59 998.4
20210621014130 88 177 5.0 11.0 0.00 0.00 0.00 59 998.5
20210621013629 88 253 5.0 11.0 0.00 0.00 0.00 58 998.5
20210621013129 88 193 5.0 12.0 0.00 0.00 0.00 58 998.6
20210621012629 88 240 5.0 12.0 0.00 0.00 0.00 59 998.6
20210621012129 89 183 5.0 11.0 0.00 0.00 0.00 58 998.7
20210621011629 89 154 6.0 12.0 0.00 0.00 0.00 58 998.7
20210621011124 89 173 5.0 12.0 0.00 0.00 0.00 58 998.8
20210621010617 89 167 5.0 12.0 0.00 0.00 0.00 58 998.8
20210621010112 90 167 5.0 12.0 0.00 0.00 0.00 57 998.8
20210621005606 90 236 4.0 11.0 0.00 0.00 0.00 57 998.9
20210621005105 90 132 4.0 14.0 0.00 0.00 0.00 56 998.9
20210621004602 91 244 6.0 14.0 0.00 0.00 0.00 55 998.9
20210621004103 91 156 7.0 14.0 0.00 0.00 0.00 54 998.8
20210621003603 91 161 7.0 14.0 0.00 0.00 0.00 53 998.8
20210621003101 91 153 6.0 15.0 0.00 0.00 0.00 52 998.9
20210621002602 92 173 5.0 15.0 0.00 0.00 0.00 52 998.9
20210621002102 92 162 5.0 13.0 0.00 0.00 0.00 52 998.8
20210621001603 92 205 5.0 14.0 0.00 0.00 0.00 51 998.8
20210621001102 92 151 5.0 14.0 0.00 0.00 0.00 51 998.8
20210621000602 92 234 6.0 14.0 0.00 0.00 0.00 51 998.7
20210621000103 92 182 6.0 15.0 0.00 0.00 0.00 50 998.7
20210620235601 93 159 6.0 18.0 0.00 0.00 0.00 50 998.6
20210620235100 93 231 6.0 18.0 0.00 0.00 0.00 49 998.7
20210620234601 93 196 5.0 15.0 0.00 0.00 0.00 49 998.6
20210620234101 93 161 5.0 13.0 0.00 0.00 0.00 49 998.6
20210620233602 94 205 5.0 14.0 0.00 0.00 0.00 49 998.5
20210620233100 94 179 6.0 14.0 0.00 0.00 0.00 49 998.5
20210620232601 94 151 5.0 12.0 0.00 0.00 0.00 49 998.5
20210620232102 94 167 5.0 15.0 0.00 0.00 0.00 49 998.5
20210620231602 94 234 5.0 15.0 0.00 0.00 0.00 49 998.5
20210620231101 94 209 6.0 12.0 0.00 0.00 0.00 49 998.4
20210620230603 94 219 7.0 15.0 0.00 0.00 0.00 48 998.3
20210620230101 94 237 7.0 15.0 0.00 0.00 0.00 47 998.5
20210620225601 94 188 7.0 15.0 0.00 0.00 0.00 47 998.4
20210620225101 94 181 6.0 15.0 0.00 0.00 0.00 46 998.5
20210620224601 94 175 6.0 17.0 0.00 0.00 0.00 47 998.5
20210620224101 95 242 5.0 17.0 0.00 0.00 0.00 46 998.5
20210620223601 95 211 5.0 13.0 0.00 0.00 0.00 46 998.5
20210620223101 95 190 6.0 14.0 0.00 0.00 0.00 47 998.5
20210620222602 95 78 6.0 14.0 0.00 0.00 0.00 46 998.4
20210620222102 94 163 7.0 16.0 0.00 0.00 0.00 47 998.4
20210620221603 95 225 7.0 16.0 0.00 0.00 0.00 46 998.4
20210620221100 95 176 6.0 13.0 0.00 0.00 0.00 46 998.4
20210620220601 96 202 5.0 14.0 0.00 0.00 0.00 46 998.5
20210620220102 96 186 4.0 14.0 0.00 0.00 0.00 46 998.3
20210620215602 96 144 3.0 10.0 0.00 0.00 0.00 47 998.4
20210620215101 96 198 4.0 10.0 0.00 0.00 0.00 47 998.6
20210620214601 95 304 5.0 11.0 0.00 0.00 0.00 47 998.6
20210620214101 95 173 6.0 16.0 0.00 0.00 0.00 46 998.6
20210620213601 95 205 6.0 16.0 0.00 0.00 0.00 47 998.7
20210620213102 96 109 6.0 16.0 0.00 0.00 0.00 46 998.7
20210620212602 96 155 4.0 16.0 0.00 0.00 0.00 46 998.6
20210620212101 96 251 5.0 17.0 0.00 0.00 0.00 47 998.8
20210620211601 95 222 6.0 17.0 0.00 0.00 0.00 47 998.7
20210620211102 96 120 5.0 14.0 0.00 0.00 0.00 47 998.8
20210620210602 96 171 5.0 14.0 0.00 0.00 0.00 48 998.9
20210620210101 96 169 5.0 14.0 0.00 0.00 0.00 47 998.9
20210620205601 96 228 5.0 12.0 0.00 0.00 0.00 47 998.8
20210620205101 96 215 5.0 19.0 0.00 0.00 0.00 46 998.9
20210620204600 95 166 5.0 19.0 0.00 0.00 0.00 47 999.0
20210620204054 95 196 5.0 15.0 0.00 0.00 0.00 47 998.9
20210620203548 95 201 6.0 15.0 0.00 0.00 0.00 48 999.0
20210620203042 95 127 5.0 11.0 0.00 0.00 0.00 47 999.0
20210620202536 96 167 4.0 10.0 0.00 0.00 0.00 47 999.1
20210620202035 95 156 4.0 10.0 0.00 0.00 0.00 47 999.0
20210620201536 95 269 4.0 11.0 0.00 0.00 0.00 48 999.0
20210620201034 95 182 6.0 13.0 0.00 0.00 0.00 48 998.9
20210620200534 95 184 6.0 15.0 0.00 0.00 0.00 47 998.9
20210620200032 95 236 5.0 15.0 0.00 0.00 0.00 49 998.8
20210620195533 94 151 6.0 17.0 0.00 0.00 0.00 48 998.9
20210620195032 94 196 6.0 17.0 0.00 0.00 0.00 47 998.9
20210620194530 95 186 5.0 16.0 0.00 0.00 0.00 49 998.9
20210620194029 94 155 6.0 17.0 0.00 0.00 0.00 50 998.9
20210620193530 94 229 7.0 17.0 0.00 0.00 0.00 49 998.8
20210620193030 94 196 6.0 13.0 0.00 0.00 0.00 48 998.9
20210620192530 94 205 6.0 14.0 0.00 0.00 0.00 49 998.9
20210620192029 94 225 6.0 15.0 0.00 0.00 0.00 48 999.0
20210620191530 94 190 6.0 15.0 0.00 0.00 0.00 51 998.9
20210620191030 94 190 6.0 17.0 0.00 0.00 0.00 50 998.9
20210620190530 93 167 7.0 17.0 0.00 0.00 0.00 49 999.0
20210620190030 93 160 7.0 17.0 0.00 0.00 0.00 50 999.0
20210620185530 93 210 7.0 17.0 0.00 0.00 0.00 49 999.0
20210620185024 94 232 5.0 12.0 0.00 0.00 0.00 50 999.1
20210620184518 94 160 5.0 13.0 0.00 0.00 0.00 50 999.1
20210620184012 93 196 5.0 13.0 0.00 0.00 0.00 51 999.1
20210620183506 93 343 5.0 14.0 0.00 0.00 0.00 50 999.1
20210620183004 93 113 6.0 14.0 0.00 0.00 0.00 50 999.2
20210620182505 93 189 5.0 14.0 0.00 0.00 0.00 52 999.2
20210620182005 93 148 6.0 14.0 0.00 0.00 0.00 51 999.3
20210620181504 92 223 7.0 15.0 0.00 0.00 0.00 51 999.2
20210620181004 92 193 5.0 15.0 0.00 0.00 0.00 51 999.3
20210620180504 92 210 5.0 14.0 0.00 0.00 0.00 52 999.3
20210620180005 92 234 5.0 14.0 0.00 0.00 0.00 51 999.4
20210620175504 92 300 5.0 12.0 0.00 0.00 0.00 52 999.5
20210620175005 92 159 6.0 15.0 0.00 0.00 0.00 53 999.6
20210620174504 91 180 7.0 15.0 0.00 0.00 0.00 52 999.6
20210620174004 91 154 7.0 18.0 0.00 0.00 0.00 52 999.6
20210620173504 91 182 6.0 18.0 0.00 0.00 0.00 52 999.6
20210620173004 91 241 6.0 14.0 0.00 0.00 0.00 53 999.7
20210620172505 90 164 6.0 15.0 0.00 0.00 0.00 54 999.7
20210620172006 90 161 6.0 15.0 0.00 0.00 0.00 52 999.8
20210620171504 90 218 6.0 16.0 0.00 0.00 0.00 54 999.8
20210620171001 90 172 7.0 16.0 0.00 0.00 0.00 54 999.9
20210620170501 89 180 7.0 16.0 0.00 0.00 0.00 54 1000.0
20210620170001 89 163 5.0 16.0 0.00 0.00 0.00 53 1000.1
20210620165501 89 194 4.0 10.0 0.00 0.00 0.00 56 1000.1
20210620165002 89 194 5.0 11.0 0.00 0.00 0.00 56 1000.3
20210620164502 88 265 5.0 11.0 0.00 0.00 0.00 56 1000.3
20210620164002 88 238 4.0 12.0 0.00 0.00 0.00 55 1000.3
20210620163501 88 205 4.0 12.0 0.00 0.00 0.00 56 1000.4
20210620163001 87 198 4.0 11.0 0.00 0.00 0.00 58 1000.4
20210620162501 87 251 5.0 11.0 0.00 0.00 0.00 57 1000.5
20210620162001 87 194 5.0 11.0 0.00 0.00 0.00 55 1000.5
20210620161501 87 265 5.0 16.0 0.00 0.00 0.00 55 1000.5
20210620161002 88 214 5.0 16.0 0.00 0.00 0.00 54 1000.4
20210620160501 88 192 5.0 17.0 0.00 0.00 0.00 55 1000.5
20210620160001 88 234 4.0 17.0 0.00 0.00 0.00 54 1000.4
20210620155502 88 310 5.0 10.0 0.00 0.00 0.00 55 1000.3
20210620155002 87 180 5.0 15.0 0.00 0.00 0.00 57 1000.4
20210620154500 87 173 5.0 15.0 0.00 0.00 0.00 55 1000.5
20210620154001 87 235 5.0 17.0 0.00 0.00 0.00 58 1000.4
20210620153501 86 161 6.0 17.0 0.00 0.00 0.00 58 1000.4
20210620153002 86 313 6.0 12.0 0.00 0.00 0.00 59 1000.3
20210620152501 86 177 7.0 17.0 0.00 0.00 0.00 58 1000.5
20210620152002 85 186 7.0 17.0 0.00 0.00 0.00 59 1000.5
20210620151502 85 200 6.0 15.0 0.00 0.00 0.00 60 1000.6
20210620151002 85 167 5.0 15.0 0.00 0.00 0.00 60 1000.8
20210620150500 85 186 6.0 12.0 0.00 0.00 0.00 61 1000.9
20210620150001 84 167 6.0 12.0 0.00 0.00 0.00 61 1000.9
20210620145458 84 176 6.0 15.0 0.00 0.00 0.00 63 1000.9
20210620144958 84 150 5.0 15.0 0.00 0.00 0.00 62 1001.0
20210620144459 84 117 5.0 12.0 0.00 0.00 0.00 63 1001.2
20210620143958 83 215 5.0 12.0 0.00 0.00 0.00 64 1001.2
20210620143458 83 196 4.0 10.0 0.00 0.00 0.00 65 1001.3
20210620142959 82 168 4.0 8.0 0.00 0.00 0.00 66 1001.4
20210620142458 82 207 4.0 8.0 0.00 0.00 0.00 67 1001.5
20210620141957 82 192 4.0 10.0 0.00 0.00 0.00 68 1001.8
20210620141458 81 163 4.0 10.0 0.00 0.00 0.00 69 1001.8
20210620140952 81 194 3.0 9.0 0.00 0.00 0.00 69 1001.9
20210620140452 80 195 3.0 9.0 0.00 0.00 0.00 70 1001.9
20210620135952 80 189 3.0 9.0 0.00 0.00 0.00 71 1001.7
20210620135450 79 201 3.0 9.0 0.00 0.00 0.00 73 1001.8
20210620134948 79 146 3.0 8.0 0.00 0.00 0.00 74 1001.7
20210620134448 78 161 4.0 8.0 0.00 0.00 0.00 74 1001.8
20210620133947 78 92 3.0 9.0 0.00 0.00 0.00 75 1001.5
20210620133448 78 198 4.0 9.0 0.00 0.00 0.00 75 1001.4
20210620132948 77 258 4.0 9.0 0.00 0.00 0.00 76 1001.3
20210620132447 77 213 4.0 9.0 0.00 0.00 0.00 76 1001.0
20210620131946 76 159 4.0 11.0 0.00 0.00 0.00 77 1001.1
20210620131447 76 178 4.0 11.0 0.00 0.00 0.00 77 1001.2
20210620130947 76 137 3.0 11.0 0.00 0.00 0.00 78 1001.5
20210620130447 75 180 4.0 11.0 0.00 0.00 0.00 79 1001.5
20210620125947 75 150 3.0 9.0 0.00 0.00 0.00 79 1001.7
20210620125445 75 194 3.0 8.0 0.00 0.00 0.00 80 1001.5
20210620124946 74 203 3.0 8.0 0.00 0.00 0.00 80 1001.7
20210620124445 74 148 2.0 7.0 0.00 0.00 0.00 81 1001.4
20210620123942 74 163 2.0 6.0 0.00 0.00 0.00 82 1001.5
20210620123442 73 242 2.0 6.0 0.00 0.00 0.00 82 1001.4
20210620122942 73 171 3.0 9.0 0.00 0.00 0.00 83 1001.3
20210620122441 73 198 4.0 11.0 0.00 0.00 0.00 83 1001.1
20210620121938 73 132 4.0 11.0 0.00 0.00 0.00 83 1000.9
20210620121439 72 170 4.0 11.0 0.00 0.00 0.00 83 1000.9
20210620120938 72 161 5.0 11.0 0.00 0.00 0.00 83 1000.9
20210620120438 72 179 5.0 11.0 0.00 0.00 0.00 83 1000.9
20210620115936 72 196 3.0 11.0 0.00 0.00 0.00 84 1000.9
20210620115436 72 180 3.0 8.0 0.00 0.00 0.00 84 1001.0
20210620114937 72 176 3.0 8.0 0.00 0.00 0.00 84 1001.1
20210620114434 72 142 3.0 7.0 0.00 0.00 0.00 84 1001.2
20210620113936 72 87 3.0 6.0 0.00 0.00 0.00 84 1001.2
20210620113435 72 168 3.0 7.0 0.00 0.00 0.00 84 1001.3
20210620112933 72 186 3.0 7.0 0.00 0.00 0.00 84 1001.3
20210620112434 72 178 3.0 9.0 0.00 0.00 0.00 84 1001.2
20210620111935 72 163 3.0 9.0 0.00 0.00 0.00 84 1001.2
20210620111434 72 136 3.0 8.0 0.00 0.00 0.00 83 1001.1